EW9434 Weather Reports


time (UTC)temp
F
wind
direction
speed
knots
gust
knots
rain 1hr
in
rain 24hr
in
rain mn
in
humidity
%
barometer
mb
20260506042910 52 282 2.6 11.3 0.13 0.78 0.10 94 1006.1
20260506042343 52 288 1.7 7.8 0.12 0.77 0.09 94 1006.4
20260506042034 53 282 1.7 5.2 0.11 0.76 0.08 94 1006.2
20260506041609 52 282 0.9 5.2 0.11 0.76 0.08 94 1005.7
20260506041312 53 286 1.7 6.1 0.09 0.74 0.07 94 1006.3
20260506040741 54 288 0.9 6.1 0.06 0.71 0.03 94 1006.2
20260506040242 55 288 0.9 2.6 0.04 0.69 0.01 94 1005.9
20260506040100 54 288 0.9 2.6 0.03 0.68 0.00 94 1005.4
20260506035712 55 290 0.9 3.5 0.04 0.68 0.68 94 1005.7
20260506035214 56 273 0.9 3.5 0.03 0.67 0.67 93 1005.6
20260506034650 58 273 0.9 2.6 0.03 0.66 0.66 93 1005.7
20260506034506 58 290 0.9 2.6 0.03 0.66 0.66 94 1005.4
20260506034145 59 286 0.0 1.7 0.03 0.65 0.65 96 1005.8
20260506033910 59 286 0.0 2.6 0.03 0.65 0.65 96 1005.8
20260506033356 59 286 0.0 3.5 0.04 0.65 0.65 95 1005.7
20260506033048 59 286 0.9 3.5 0.05 0.65 0.65 95 1005.7
20260506033017 59 286 0.0 3.5 0.04 0.65 0.65 95 1005.3
20260506032045 59 286 0.9 3.5 0.06 0.65 0.65 96 1005.8
20260506031536 59 286 0.9 3.5 0.06 0.65 0.65 95 1005.4
20260506031518 59 286 0.0 3.5 0.06 0.65 0.65 95 1005.8
20260506031020 59 286 0.0 2.6 0.06 0.65 0.65 95 1006.0
20260506030453 59 286 0.0 2.6 0.07 0.65 0.65 96 1006.0
20260506030056 59 286 0.0 2.6 0.07 0.65 0.65 95 1005.6
20260506025927 59 286 0.0 2.6 0.07 0.64 0.64 95 1006.1
20260506025645 59 286 0.9 4.3 0.08 0.64 0.64 95 1006.1
20260506024907 59 286 0.9 4.3 0.08 0.63 0.63 95 1006.2
20260506024608 59 286 0.9 4.3 0.09 0.63 0.63 95 1005.9
20260506024407 60 287 0.9 2.6 0.09 0.63 0.63 95 1006.3
20260506024112 60 288 0.9 4.3 0.08 0.62 0.62 95 1006.6
20260506023549 60 289 0.0 3.5 0.07 0.61 0.61 95 1006.7
20260506023108 59 291 0.0 1.7 0.07 0.61 0.61 95 1006.3
20260506023023 60 291 0.0 1.7 0.07 0.61 0.61 95 1006.9
20260506022243 60 273 0.9 2.6 0.06 0.60 0.60 95 1006.9
20260506021748 60 290 0.9 3.5 0.05 0.59 0.59 95 1006.9
20260506021606 59 291 0.0 3.5 0.05 0.59 0.59 95 1006.5
20260506021226 60 273 0.9 3.5 0.06 0.59 0.59 95 1006.9
20260506020729 60 273 0.9 3.5 0.07 0.59 0.59 95 1006.8
20260506020442 60 290 0.9 3.5 0.08 0.58 0.58 95 1006.7
20260506020104 60 290 0.0 4.3 0.08 0.57 0.57 95 1006.3
20260506015724 60 289 0.9 4.3 0.09 0.57 0.57 95 1006.8
20260506015225 60 290 0.9 4.3 0.08 0.55 0.55 95 1006.9
20260506014721 60 290 0.9 2.6 0.08 0.54 0.54 95 1006.8
20260506014559 60 290 0.0 2.6 0.08 0.54 0.54 95 1006.4
20260506014159 60 289 0.0 2.6 0.09 0.54 0.54 95 1006.8
20260506013638 60 289 0.0 1.7 0.09 0.54 0.54 95 1006.6
20260506013400 60 290 0.0 0.9 0.09 0.54 0.54 95 1006.6
20260506013014 60 273 0.0 0.9 0.09 0.54 0.54 95 1006.1
20260506012622 60 291 0.0 0.9 0.09 0.54 0.54 95 1006.5
20260506012103 60 290 0.0 0.0 0.10 0.54 0.54 95 1006.5
20260506011605 60 273 0.0 1.7 0.09 0.53 0.54 95 1006.5
20260506011521 60 290 0.0 0.0 0.09 0.53 0.53 95 1006.0
20260506011106 60 273 0.0 1.7 0.09 0.53 0.53 95 1006.5
20260506010539 60 290 0.0 2.6 0.08 0.51 0.51 95 1006.7
20260506010019 60 290 0.9 1.7 0.06 0.49 0.50 95 1006.7
20260506010005 60 291 0.0 2.6 0.07 0.50 0.50 95 1006.2
20260506005513 60 291 0.9 2.6 0.05 0.48 0.48 95 1006.7
20260506005011 60 291 0.9 2.6 0.04 0.47 0.47 95 1006.7
20260506004737 60 291 0.9 4.3 0.04 0.46 0.46 95 1006.5
20260506004559 60 292 0.9 4.3 0.04 0.46 0.46 95 1006.0
20260506004011 61 294 0.0 4.3 0.03 0.45 0.45 95 1006.3
20260506003444 61 291 0.9 1.7 0.03 0.45 0.45 94 1006.3
20260506003015 60 273 0.0 1.7 0.03 0.45 0.45 94 1005.7
20260506002940 60 291 0.0 1.7 0.03 0.45 0.45 94 1006.4
20260506002435 61 291 0.0 0.9 0.04 0.45 0.45 94 1006.2
20260506001916 61 290 0.0 1.7 0.03 0.44 0.44 94 1006.2
20260506001637 61 291 0.0 1.7 0.03 0.44 0.44 94 1006.1
20260506001609 60 290 0.0 0.9 0.03 0.44 0.44 94 1005.6
20260506000851 61 290 0.9 4.3 0.03 0.44 0.44 94 1005.9
20260506000605 61 290 0.9 4.3 0.02 0.43 0.43 94 1006.0
20260506000008 60 289 0.9 4.3 0.02 0.43 0.43 94 1005.5
20260505235842 61 288 1.7 4.3 0.02 0.43 0.43 94 1006.0
20260505235338 61 289 1.7 4.3 0.02 0.43 0.43 94 1006.1
20260505234838 61 290 1.7 5.2 0.01 0.42 0.42 94 1006.0
20260505234547 60 273 0.9 5.2 0.01 0.42 0.42 94 1005.6
20260505234309 61 273 1.7 5.2 0.01 0.42 0.42 94 1006.2
20260505233808 61 273 1.7 5.2 0.01 0.42 0.42 94 1006.3
20260505233245 61 290 1.7 5.2 0.01 0.42 0.42 94 1006.3
20260505233025 60 288 0.9 3.5 0.01 0.42 0.42 94 1005.8
20260505232732 61 286 1.7 6.1 0.00 0.41 0.41 94 1006.4
20260505232458 61 286 1.7 7.0 0.00 0.41 0.41 94 1006.4
20260505231734 61 287 1.7 3.5 0.00 0.41 0.41 94 1006.4
20260505231555 61 287 0.9 3.5 0.00 0.41 0.41 94 1005.8
20260505231435 61 288 1.7 6.1 0.01 0.41 0.41 94 1006.3
20260505230702 61 288 2.6 6.1 0.01 0.41 0.41 94 1006.4
20260505230200 61 290 3.5 10.4 0.01 0.41 0.41 94 1006.4
20260505230109 61 288 2.6 10.4 0.01 0.41 0.41 94 1005.9
20260505225859 61 288 2.6 10.4 0.01 0.41 0.41 94 1006.5
20260505225339 61 290 3.5 7.8 0.01 0.41 0.41 94 1006.6
20260505224543 61 290 2.6 7.8 0.01 0.41 0.41 94 1006.7
20260505224526 61 290 3.5 7.8 0.01 0.41 0.41 94 1006.1
20260505224015 61 290 1.7 7.0 0.02 0.41 0.41 94 1006.7
20260505223451 61 289 1.7 7.8 0.02 0.41 0.41 94 1006.8
20260505223100 61 290 0.9 7.8 0.03 0.41 0.41 94 1006.3
20260505222924 61 289 2.6 7.8 0.03 0.41 0.41 94 1006.8
20260505222419 61 289 3.5 9.6 0.03 0.41 0.41 94 1006.8
20260505221919 61 288 3.5 9.6 0.04 0.41 0.41 94 1006.9
20260505221545 61 288 3.5 9.6 0.04 0.41 0.41 94 1006.4
20260505221353 61 289 3.5 8.7 0.04 0.41 0.41 94 1007.0
20260505220828 61 290 3.5 7.8 0.03 0.40 0.40 94 1007.1
20260505220259 61 290 2.6 7.8 0.03 0.40 0.40 94 1007.1
20260505220039 61 290 2.6 7.8 0.03 0.40 0.40 94 1006.6
20260505215733 61 292 2.6 7.8 0.03 0.40 0.40 94 1007.2
20260505215210 61 293 2.6 7.8 0.03 0.40 0.40 94 1007.2
20260505214642 61 290 3.5 8.7 0.03 0.40 0.40 94 1007.2
20260505214507 61 292 2.6 8.7 0.03 0.40 0.40 94 1006.6
20260505214115 61 291 3.5 8.7 0.02 0.39 0.39 94 1007.2
20260505213549 61 288 2.6 7.0 0.02 0.39 0.39 94 1007.2
20260505213022 61 288 3.5 10.4 0.02 0.38 0.38 94 1007.2
20260505213008 61 288 0.9 10.4 0.02 0.38 0.38 94 1006.7
20260505212507 61 288 3.5 10.4 0.02 0.38 0.38 94 1007.2
20260505211949 61 286 2.6 7.8 0.01 0.37 0.38 94 1007.2
20260505211532 61 286 3.5 7.8 0.01 0.37 0.37 94 1006.6
20260505211453 61 286 2.6 7.8 0.01 0.37 0.37 94 1007.3
20260505210925 61 288 2.6 7.8 0.01 0.37 0.37 94 1007.3
20260505210356 61 286 2.6 7.8 0.02 0.37 0.37 94 1007.3
20260505210044 61 286 1.7 8.7 0.02 0.37 0.37 94 1006.7
20260505205856 61 287 2.6 8.7 0.03 0.37 0.37 94 1007.3
20260505205329 61 287 3.5 7.8 0.03 0.37 0.37 94 1007.2
20260505204803 61 286 3.5 9.6 0.04 0.37 0.37 93 1007.2
20260505204512 61 286 4.3 9.6 0.04 0.37 0.37 93 1006.7
20260505204235 61 287 1.7 7.0 0.05 0.37 0.37 93 1007.3
20260505203735 62 290 1.7 7.0 0.06 0.37 0.37 93 1007.3
20260505203207 61 273 1.7 7.0 0.11 0.36 0.36 93 1007.3
20260505203100 61 291 0.9 7.0 0.12 0.36 0.36 93 1006.8
20260505202908 61 290 2.6 7.8 0.18 0.36 0.36 93 1007.3
20260505202115 61 290 1.7 7.8 0.20 0.36 0.36 93 1007.3
20260505201550 61 291 1.7 3.5 0.22 0.36 0.36 93 1007.4
20260505201519 61 273 1.7 3.5 0.22 0.36 0.36 93 1006.8
20260505201247 61 290 1.7 4.3 0.22 0.36 0.36 93 1007.4
20260505200454 61 290 1.7 5.2 0.21 0.35 0.35 92 1007.5
20260505200039 61 273 1.7 7.8 0.21 0.35 0.35 92 1006.8
20260505195953 61 291 1.7 7.8 0.20 0.34 0.35 92 1007.5
20260505195448 61 288 1.7 7.8 0.20 0.34 0.34 91 1007.5
20260505195209 61 288 1.7 7.8 0.19 0.33 0.33 91 1007.7
20260505194548 61 288 2.6 8.7 0.19 0.33 0.33 91 1007.2
20260505194421 62 288 3.5 13.9 0.18 0.32 0.32 90 1007.8
20260505193917 62 290 5.2 13.9 0.17 0.31 0.32 89 1007.9
20260505193352 63 290 4.3 12.2 0.13 0.27 0.27 87 1008.1
20260505193106 63 289 3.5 12.2 0.10 0.24 0.24 85 1007.4
20260505192822 64 273 5.2 13.0 0.06 0.20 0.20 83 1007.9
20260505192323 65 287 4.3 13.0 0.03 0.17 0.17 79 1007.7
20260505191755 67 287 3.5 11.3 0.00 0.14 0.14 74 1007.6
20260505191522 67 213 1.7 10.4 0.00 0.14 0.14 72 1006.8
20260505191253 67 95 3.5 11.3 0.00 0.14 0.14 71 1007.2
20260505191011 68 75 3.5 8.7 0.00 0.14 0.14 71 1007.2
20260505190245 68 158 4.3 10.4 0.00 0.14 0.14 70 1007.4
20260505190046 67 172 2.6 10.4 0.00 0.14 0.14 70 1006.7
20260505185744 68 145 5.2 10.4 0.00 0.14 0.14 70 1007.4
20260505185214 68 123 5.2 9.6 0.00 0.14 0.14 70 1007.4
20260505184714 68 121 4.3 10.4 0.00 0.14 0.14 69 1007.4
20260505184533 67 84 4.3 10.4 0.00 0.14 0.14 70 1006.9
20260505184148 68 100 4.3 9.6 0.00 0.14 0.14 69 1007.6
20260505184106 67 82 4.3 11.3 0.00 0.14 0.14 69 1007.5
20260505183117 67 156 5.2 11.3 0.00 0.14 0.14 69 1007.6
20260505183047 67 155 4.3 7.8 0.00 0.14 0.14 69 1007.0
20260505182551 67 114 5.2 11.3 0.00 0.14 0.14 69 1007.7
20260505182245 67 151 5.2 13.9 0.00 0.14 0.14 69 1007.7
20260505181521 67 100 5.2 13.9 0.00 0.14 0.14 69 1007.3
20260505181458 67 123 5.2 16.5 0.00 0.14 0.14 69 1007.8
20260505180956 67 123 5.2 16.5 0.00 0.14 0.14 69 1007.9
20260505180427 67 73 4.3 9.6 0.00 0.14 0.14 68 1008.0
20260505180005 67 109 3.5 9.6 0.00 0.14 0.14 69 1007.4
20260505175927 67 97 4.3 9.6 0.00 0.14 0.14 69 1008.0
20260505175357 67 120 4.3 13.0 0.00 0.14 0.14 69 1008.0
20260505174834 67 132 4.3 8.7 0.00 0.14 0.14 69 1008.1
20260505174541 66 138 2.6 8.7 0.00 0.14 0.14 68 1007.6
20260505174303 67 127 5.2 10.4 0.00 0.14 0.14 69 1008.1
20260505173803 67 134 4.3 9.6 0.00 0.14 0.14 69 1008.2
20260505173511 66 122 3.5 10.4 0.00 0.14 0.14 69 1008.2
20260505173012 66 157 2.6 13.9 0.00 0.14 0.14 69 1007.7
20260505172747 66 115 3.5 13.9 0.00 0.14 0.14 70 1008.3
20260505172248 66 148 4.3 13.9 0.00 0.14 0.14 68 1008.3
20260505171723 66 99 3.5 8.7 0.00 0.14 0.14 68 1008.3
20260505171519 66 128 4.3 8.7 0.00 0.14 0.14 69 1007.7
20260505171225 66 121 3.5 9.6 0.00 0.14 0.14 69 1008.3
20260505170708 66 326 3.5 9.6 0.00 0.14 0.14 68 1008.4
20260505170218 66 292 4.3 12.2 0.00 0.14 0.14 68 1008.4
20260505170033 66 288 3.5 12.2 0.00 0.14 0.14 68 1007.8
20260505165641 66 289 5.2 12.2 0.00 0.14 0.14 68 1008.5
20260505165111 66 292 5.2 12.2 0.00 0.14 0.14 68 1008.4
20260505164545 66 296 4.3 12.2 0.00 0.14 0.14 69 1008.4
20260505164530 66 295 5.2 12.2 0.00 0.14 0.14 69 1007.8
20260505164040 66 312 4.3 11.3 0.00 0.14 0.14 68 1008.3
20260505163539 66 299 4.3 9.6 0.00 0.14 0.14 69 1008.4
20260505163030 66 114 4.3 9.6 0.00 0.14 0.14 69 1007.8
20260505163011 66 111 4.3 9.6 0.00 0.14 0.14 69 1008.4
20260505162512 66 308 4.3 10.4 0.00 0.14 0.14 70 1008.4
20260505161941 66 295 5.2 13.0 0.00 0.14 0.14 69 1008.4
20260505161535 66 285 6.1 13.0 0.00 0.14 0.14 70 1007.8
20260505161439 66 286 5.2 13.0 0.00 0.14 0.14 70 1008.3
20260505160915 66 286 5.2 9.6 0.00 0.14 0.14 70 1008.4
20260505160347 66 286 4.3 11.3 0.00 0.14 0.14 70 1008.3
20260505153242 66 120 4.3 10.4 0.00 0.14 0.14 73 1008.2
20260505153101 66 136 4.3 10.4 0.00 0.14 0.14 71 1007.6
20260505152730 66 134 4.3 10.4 0.00 0.14 0.14 73 1008.2
20260505152231 66 111 5.2 10.4 0.00 0.14 0.14 73 1008.2
20260505151705 66 128 4.3 10.4 0.00 0.14 0.14 75 1008.1
20260505151504 65 103 3.5 9.6 0.00 0.14 0.14 75 1007.6
20260505151204 65 91 5.2 11.3 0.00 0.14 0.14 76 1008.2
20260505150708 65 143 4.3 11.3 0.00 0.14 0.14 76 1008.2
20260505150148 65 75 4.3 10.4 0.00 0.14 0.14 79 1008.3
20260505140452 61 156 2.6 8.7 0.00 0.14 0.14 91 1007.9
20260505124817 58 273 3.5 10.4 0.00 0.14 0.14 94 1007.5
20260505124608 58 290 3.5 10.4 0.00 0.14 0.14 94 1006.8
20260505124314 59 273 2.6 5.2 0.00 0.14 0.14 94 1007.5
20260505123747 58 273 2.6 7.8 0.01 0.14 0.14 94 1007.7
20260505123225 58 273 2.6 7.8 0.01 0.14 0.14 94 1007.9
20260505123045 58 273 1.7 5.2 0.01 0.14 0.14 94 1007.5
20260505122705 58 288 2.6 6.1 0.02 0.14 0.14 94 1008.1
20260505122207 58 286 2.6 7.0 0.02 0.14 0.14 94 1007.9
20260505121653 58 287 2.6 7.8 0.02 0.14 0.14 94 1008.0
20260505121527 58 288 0.9 7.8 0.02 0.14 0.14 94 1007.5
20260505121417 58 273 2.6 7.8 0.02 0.14 0.14 94 1008.2
20260505120657 58 273 1.7 7.8 0.02 0.14 0.14 94 1008.2
20260505120142 58 273 2.6 7.8 0.02 0.14 0.14 94 1008.2
20260505120125 58 289 2.6 7.8 0.02 0.14 0.14 94 1008.2
20260505120041 57 273 1.7 7.8 0.02 0.14 0.14 94 1007.7
20260505115137 58 291 2.6 7.8 0.02 0.14 0.14 94 1008.2
20260505114638 58 288 1.7 7.8 0.02 0.14 0.14 94 1008.1
20260505114507 57 288 2.6 7.8 0.02 0.14 0.14 94 1007.6
20260505114114 58 287 1.7 5.2 0.01 0.13 0.13 94 1007.9
20260505113556 58 288 1.7 3.5 0.01 0.13 0.13 94 1007.8
20260505113054 57 287 1.7 7.0 0.01 0.13 0.13 94 1007.7
20260505113019 57 287 0.9 4.3 0.01 0.13 0.13 94 1007.1
20260505112552 57 288 1.7 7.0 0.01 0.12 0.12 93 1007.5
20260505112317 57 289 2.6 7.0 0.02 0.12 0.12 93 1007.5
20260505111752 57 289 2.6 7.0 0.02 0.12 0.12 93 1007.4
20260505111509 57 289 2.6 7.0 0.02 0.12 0.12 93 1007.0
20260505111021 57 287 1.7 6.1 0.05 0.12 0.12 93 1007.1
20260505110526 57 288 1.7 4.3 0.06 0.12 0.12 93 1006.8
20260505101915 57 273 0.9 4.3 0.10 0.10 0.10 91 1008.1
20260505101537 57 273 0.9 4.3 0.10 0.10 0.10 91 1007.6
20260505101412 58 273 0.9 4.3 0.10 0.10 0.10 90 1008.2
20260505100909 58 273 1.7 5.2 0.07 0.07 0.07 90 1008.4
20260505100630 58 273 2.6 10.4 0.06 0.06 0.06 90 1008.5
20260505100023 58 273 1.7 10.4 0.05 0.05 0.05 89 1008.1
20260505095841 58 273 3.5 10.4 0.04 0.04 0.04 89 1008.6
20260505095337 58 273 3.5 10.4 0.03 0.03 0.03 88 1008.4
20260505094811 59 273 1.7 10.4 0.02 0.02 0.02 87 1008.4
20260505094636 59 273 2.6 10.4 0.02 0.02 0.02 87 1007.8
20260505094310 59 273 0.9 7.0 0.02 0.02 0.02 87 1008.3
20260505093741 60 273 1.7 5.2 0.01 0.01 0.01 86 1008.3
20260505093216 60 273 1.7 7.0 0.01 0.01 0.01 84 1008.2
20260505093100 60 273 0.9 7.0 0.01 0.01 0.01 83 1007.7
20260505092649 61 273 1.7 7.0 0.01 0.01 0.01 82 1008.1
20260505092143 62 273 1.7 3.5 0.01 0.01 0.01 78 1007.8
20260505091644 63 289 0.9 2.6 0.00 0.00 0.00 75 1007.6
20260505091532 63 289 0.9 2.6 0.00 0.00 0.00 74 1007.2
20260505091116 64 287 2.6 8.7 0.00 0.00 0.00 70 1007.3
20260505090557 64 288 2.6 8.7 0.00 0.00 0.00 68 1007.3
20260505090309 65 287 1.7 3.5 0.00 0.00 0.00 63 1007.5
20260505090034 64 287 1.7 3.5 0.00 0.00 0.00 63 1007.1
20260505085804 65 287 0.9 2.6 0.00 0.00 0.00 63 1007.2
20260505085041 65 287 0.9 2.6 0.00 0.00 0.00 62 1006.9
20260505084618 65 287 0.9 3.5 0.00 0.00 0.00 62 1006.5
20260505084537 65 287 0.9 3.5 0.00 0.00 0.00 62 1006.9
20260505084011 65 286 0.9 3.5 0.00 0.00 0.00 61 1006.9
20260505083927 65 286 1.7 3.5 0.00 0.00 0.00 61 1006.8
20260505083112 65 287 0.9 3.5 0.00 0.00 0.00 61 1006.3
20260505082920 65 287 1.7 2.6 0.00 0.00 0.00 61 1006.7
20260505082353 66 286 1.7 4.3 0.00 0.00 0.00 60 1006.5
20260505081852 66 288 1.7 4.3 0.00 0.00 0.00 60 1006.3
20260505081602 65 288 1.7 4.3 0.00 0.00 0.00 59 1005.8
20260505081322 66 287 1.7 6.1 0.00 0.00 0.00 59 1006.2
20260505080820 66 288 2.6 6.1 0.00 0.00 0.00 59 1006.2
20260505080542 66 288 2.6 8.7 0.00 0.00 0.00 59 1006.2
20260505080011 66 288 1.7 8.7 0.00 0.00 0.00 58 1005.7
20260505075816 67 288 4.3 11.3 0.00 0.00 0.00 58 1006.2
20260505075245 67 287 4.3 11.3 0.00 0.00 0.00 58 1006.3
20260505074743 67 286 3.5 8.7 0.00 0.00 0.00 58 1006.3
20260505074628 66 288 3.5 8.7 0.00 0.00 0.00 58 1005.9
20260505074220 67 286 3.5 7.8 0.00 0.00 0.00 58 1006.3
20260505073718 67 288 2.6 7.8 0.00 0.00 0.00 58 1006.3
20260505073217 67 287 2.6 7.0 0.00 0.00 0.00 57 1006.2
20260505073038 67 286 1.7 4.3 0.00 0.00 0.00 57 1005.7
20260505072926 67 286 2.6 8.7 0.00 0.00 0.00 57 1006.1
20260505072207 67 287 3.5 11.3 0.00 0.00 0.00 57 1006.0
20260505071640 67 287 4.3 11.3 0.00 0.00 0.00 56 1005.9
20260505071549 67 287 2.6 11.3 0.00 0.00 0.00 56 1005.4
20260505071400 67 287 4.3 11.3 0.00 0.00 0.00 57 1005.9
20260505070608 67 286 3.5 11.3 0.00 0.00 0.00 57 1006.0
20260505070304 67 286 4.3 11.3 0.00 0.00 0.00 57 1006.0
20260505070010 66 286 3.5 11.3 0.00 0.00 0.00 58 1005.6
20260505065511 67 287 3.5 11.3 0.00 0.00 0.00 58 1006.0
20260505065241 66 288 2.6 8.7 0.00 0.00 0.00 59 1005.8
20260505064725 66 286 3.5 8.7 0.00 0.00 0.00 59 1005.8
20260505064523 66 286 1.7 8.7 0.00 0.00 0.00 59 1005.4
20260505064006 67 286 3.5 8.7 0.00 0.00 0.00 59 1005.7
20260505063501 67 287 3.5 7.8 0.00 0.00 0.00 59 1005.7
20260505063016 66 287 2.6 7.8 0.00 0.00 0.00 58 1005.2
20260505062958 67 288 3.5 7.8 0.00 0.00 0.00 58 1005.7
20260505062458 67 286 2.6 8.7 0.00 0.00 0.00 58 1005.7
20260505061943 67 286 3.5 8.7 0.00 0.00 0.00 58 1005.7
20260505061708 67 286 3.5 11.3 0.00 0.00 0.00 57 1005.7
20260505061529 67 286 2.6 8.7 0.00 0.00 0.00 58 1005.3
20260505061204 67 288 4.3 11.3 0.00 0.00 0.00 57 1005.7
20260505060441 68 286 4.3 9.6 0.00 0.00 0.00 56 1005.6
20260505060047 68 297 3.5 8.7 0.00 0.00 0.00 55 1005.1
20260505055915 68 286 4.3 8.7 0.00 0.00 0.00 55 1005.5
20260505055610 69 287 4.3 8.7 0.00 0.00 0.00 55 1005.4
20260505055103 69 164 5.2 10.4 0.00 0.00 0.00 55 1005.2
20260505054555 69 124 5.2 12.2 0.00 0.00 0.00 55 1005.1
20260505054506 68 85 2.6 10.4 0.00 0.00 0.00 55 1004.7
20260505053836 69 134 5.2 14.8 0.00 0.00 0.00 54 1005.2
20260505053310 69 293 5.2 14.8 0.00 0.00 0.00 54 1005.0
20260505053025 69 288 4.3 14.8 0.00 0.00 0.00 54 1004.7
20260505052754 69 287 5.2 16.5 0.00 0.00 0.00 54 1005.0
20260505052253 69 118 6.1 16.5 0.00 0.00 0.00 53 1004.9
20260505051753 69 167 6.1 16.5 0.00 0.00 0.00 53 1004.9
20260505051534 69 113 4.3 16.5 0.00 0.00 0.00 53 1004.5
20260505051254 69 130 6.1 16.5 0.00 0.00 0.00 53 1004.9
20260505050726 69 122 7.0 16.5 0.00 0.00 0.00 53 1004.9
20260505050224 69 297 6.1 19.1 0.00 0.00 0.00 53 1004.7